Clarksburg, WV

3:12 AM EST on November 19, 2019 (GMT -0500)
Benedum

Weather History for KCKB - May, 2019

Change the Weather History Date:

Friday, May 3, 2019

  Actual Average Record
Temperature  
Mean Temperature 71 °F 58 °F  
Max Temperature 79 °F 70 °F 91 °F (1954)
Min Temperature 62 °F 46 °F 29 °F (1966)
Degree Days  
Heating Degree Days 0 8  
Month to date heating degree days 0 24  
Since 1 July heating degree days 4306 5086  
Cooling Degree Days 6 0  
Month to date cooling degree days 22 0  
Year to date cooling degree days 47 9  
Growing Degree Days 20 (Base 50)    
Moisture  
Dew Point 60 °F    
Average Humidity 72    
Maximum Humidity 90    
Minimum Humidity 54    
Precipitation  
Precipitation 0.13 in 0.11 in 1.65 in (1985)
Month to date precipitation 0.15 0.32  
Year to date precipitation 14.28 14.50  
Sea Level Pressure  
Sea Level Pressure 29.96 in    
Wind  
Wind Speed 2 mph (West)    
Max Wind Speed 14 mph    
Max Gust Speed 20 mph    
Visibility 9 miles    
Events Rain , Thunderstorm    
T = Trace of Precipitation, MM = Missing Value Source: NWS Daily Summary

Daily Weather History Graph

Daily Weather History Graph

Search for Another Location

Airport or City:

Astronomy

May. 03, 2019 Rise Set
Actual Time 6:20 AM EDT 8:16 PM EDT
Civil Twilight 5:51 AM EDT 8:45 PM EDT
Nautical Twilight 5:15 AM EDT 9:20 PM EDT
Astronomical Twilight 4:37 AM EDT 9:59 PM EDT
Moon 5:59 AM EDT (5/3) 7:02 PM EDT (5/3)
Length of Visible Light 14h 54m
Length of Day
13h 55m
Waning Crescent, 2% of the Moon is Illuminated
May 3
Waning Crescent
May 4
New
May 11
First Quarter
May 18
Full
May 26
Last Quarter

Hourly Weather History & Observations

Time (EDT) Temp. Dew Point Humidity Pressure Visibility Wind Dir Wind Speed Gust Speed Precip Events Conditions
12:53 AM 64.9 °F 57.9 °F 78% 30.07 in 10.0 mi South 4.6 mph - N/A   Clear
1:53 AM 66.0 °F 57.9 °F 75% 30.04 in 10.0 mi SSW 6.9 mph - N/A   Scattered Clouds
2:53 AM 66.0 °F 59.0 °F 78% 30.01 in 10.0 mi South 6.9 mph - 0.01 in Rain Light Rain
3:53 AM 66.0 °F 57.9 °F 75% 29.98 in 10.0 mi Variable 4.6 mph - 0.00 in   Partly Cloudy
4:53 AM 64.0 °F 57.9 °F 80% 29.98 in 10.0 mi Calm Calm - N/A   Clear
5:53 AM 62.1 °F 59.0 °F 90% 29.98 in 10.0 mi Calm Calm - N/A   Partly Cloudy
6:53 AM 62.1 °F 59.0 °F 90% 29.99 in 10.0 mi Calm Calm - N/A   Scattered Clouds
7:53 AM 64.0 °F 60.1 °F 87% 30.00 in 10.0 mi Calm Calm - N/A   Partly Cloudy
8:53 AM 66.9 °F 60.1 °F 79% 30.01 in 10.0 mi Calm Calm - N/A   Overcast
9:53 AM 71.1 °F 60.1 °F 68% 30.01 in 10.0 mi NW 3.5 mph - N/A   Partly Cloudy
10:53 AM 72.0 °F 61.0 °F 68% 30.01 in 10.0 mi NNW 4.6 mph - N/A   Mostly Cloudy
11:03 AM 73.0 °F 61.0 °F 66% 30.05 in 10.0 mi WNW 8.1 mph - N/A   Mostly Cloudy
11:28 AM 73.0 °F 60.1 °F 64% 30.04 in 10.0 mi WNW 5.8 mph - N/A   Mostly Cloudy
11:42 AM 73.9 °F 60.1 °F 62% 30.04 in 10.0 mi NW 6.9 mph - N/A   Mostly Cloudy
11:53 AM 73.9 °F 60.1 °F 62% 30.00 in 10.0 mi West 6.9 mph - N/A   Mostly Cloudy
12:08 PM 75.0 °F 59.0 °F 57% 30.03 in 10.0 mi West 3.5 mph - N/A   Scattered Clouds
12:53 PM 75.9 °F 60.1 °F 58% 29.97 in 10.0 mi Calm Calm - N/A   Clear
1:53 PM 77.0 °F 59.0 °F 54% 29.94 in 10.0 mi Calm Calm - N/A   Partly Cloudy
2:53 PM 78.1 °F 60.1 °F 54% 29.92 in 10.0 mi Calm Calm - N/A   Clear
3:53 PM 77.0 °F 59.0 °F 54% 29.88 in 10.0 mi NNW 5.8 mph - N/A   Clear
4:53 PM 72.0 °F 62.1 °F 71% 29.88 in 5.0 mi NW 8.1 mph - 0.02 in Rain , Thunderstorm Rain
5:04 PM 71.1 °F 62.1 °F 73% 29.94 in 3.0 mi Variable 6.9 mph - 0.02 in Rain , Thunderstorm Thunderstorms and Rain
5:25 PM 69.1 °F 61.0 °F 75% 29.94 in 4.0 mi West 5.8 mph - 0.06 in Rain Rain
5:53 PM 69.1 °F 61.0 °F 75% 29.90 in 10.0 mi Calm Calm - 0.08 in   Overcast
6:53 PM 69.1 °F 63.0 °F 81% 29.89 in 10.0 mi SE 4.6 mph - 0.00 in   Scattered Clouds
7:53 PM 68.0 °F 64.0 °F 87% 29.88 in 9.0 mi Calm Calm - N/A   Partly Cloudy
8:53 PM 66.0 °F 63.0 °F 90% 29.89 in 5.0 mi Calm Calm - N/A   Partly Cloudy
9:53 PM 66.0 °F 63.0 °F 90% 29.89 in 5.0 mi Calm Calm - N/A   Overcast
10:53 PM 66.9 °F 63.0 °F 87% 29.89 in 6.0 mi Calm Calm - 0.00 in   Overcast
11:53 PM 66.0 °F 63.0 °F 90% 29.89 in 5.0 mi Calm Calm - 0.00 in   Overcast